Location: The Saddle
(36.8333°N, 80.3417°W)
Time: 20:31:37
(UTC-05:00)

A-11 Canister half - Pass Details

Date: 10 December 2023
Orbit: 1512 x 1687 km, 47.2° (Epoch: 26 February)

Event Time Altitude Azimuth Distance (km) Brightness Sun altitude
Rises 00:53:56 0° 268° (W) 4,717 - -73.6°
Reaches altitude 10° 00:57:07 10° 274° (W) 3,757 - -73.2°
Maximum altitude 01:06:20 50° 348° (NNW) 1,977 - -72.1°
Drops below altitude 10° 01:15:56 10° 62° (ENE) 3,895 - -70.7°
Exits shadow 01:17:49 - 66° (ENE) 4,458 11.6 -70.4°
Sets 01:19:18 0° 68° (ENE) 4,903 11.9 -70.2°
